Quillayute, WA

2:14 AM PDT on May 25, 2017 (GMT -0700)
Quillayute

Weather History for KUIL - December, 2011

Change the Weather History Date:

Friday, December 23, 2011

  Actual Average Record
Temperature  
Mean Temperature 46 °F 40 °F  
Max Temperature 50 °F 46 °F 57 °F (1999)
Min Temperature 41 °F 35 °F 13 °F (1983)
Degree Days  
Heating Degree Days 19 25  
Month to date heating degree days 567  
Since 1 July heating degree days 2281  
Cooling Degree Days 0 0  
Month to date cooling degree days 0  
Year to date cooling degree days 19  
Moisture  
Dew Point 43 °F    
Average Humidity 95    
Maximum Humidity 100    
Minimum Humidity 87    
Precipitation  
Precipitation 0.20 in 0.41 in 3.08 in (1968)
Month to date precipitation 9.75  
Year to date precipitation 96.30  
Sea Level Pressure  
Sea Level Pressure 30.43 in    
Wind  
Wind Speed 4 mph (SSE)    
Max Wind Speed 15 mph    
Max Gust Speed 24 mph    
Visibility 7 miles    
Events Rain    
T = Trace of Precipitation, MM = Missing Value Source: NWS Daily Summary

Daily Weather History Graph

Daily Weather History Graph

Search for Another Location

Airport or City:

Trip Planner

Search our weather history database for the weather conditions in past years. The results will help you decide how hot, cold, wet, or windy it might be!

Date:

Astronomy

Dec. 23, 2011 Rise Set
Actual Time 8:05 AM PST 4:28 PM PST
Civil Twilight 7:29 AM PST 5:05 PM PST
Nautical Twilight 6:49 AM PST 5:44 PM PST
Astronomical Twilight 6:12 AM PST 6:22 PM PST
Moon 7:02 AM PST (12/23) 3:42 PM PST (12/23)
Length of Visible Light 9h 35m
Length of Day
8h 22m
Waning Crescent, 1% of the Moon is Illuminated
Dec 23
Waning Crescent
Dec 24
New
Dec 31
First Quarter
Jan 8
Full
Jan 16
Last Quarter

Hourly Weather History & Observations

Time (PST) Temp. Windchill Dew Point Humidity Pressure Visibility Wind Dir Wind Speed Gust Speed Precip Events Conditions
12:00 AM - - - N/A% - - North - - N/A   Unknown
12:13 AM 41.0 °F 38.0 °F 39.2 °F 93% 30.31 in 1.5 mi Variable 4.6 mph - 0.02 in Rain Light Rain
12:28 AM 41.0 °F 38.0 °F 39.2 °F 93% 30.32 in 3.0 mi Variable 4.6 mph - 0.03 in Rain Light Rain
12:53 AM 41.0 °F 38.0 °F 39.9 °F 96% 30.33 in 4.0 mi SSE 4.6 mph - 0.04 in Rain Light Rain
1:09 AM 41.0 °F 37.1 °F 41.0 °F 100% 30.33 in 1.8 mi Variable 5.8 mph - 0.01 in Rain Light Rain
1:16 AM 41.0 °F 38.0 °F 39.2 °F 93% 30.34 in 3.0 mi Variable 4.6 mph - 0.01 in Rain Light Rain
1:53 AM 42.1 °F 39.2 °F 41.0 °F 96% 30.36 in 10.0 mi SE 4.6 mph - 0.02 in   Overcast
2:53 AM 42.1 °F 38.4 °F 41.0 °F 96% 30.37 in 10.0 mi East 5.8 mph - N/A   Overcast
3:23 AM 42.8 °F - 41.0 °F 93% 30.36 in 10.0 mi Calm Calm - N/A   Overcast
3:53 AM 42.1 °F - 41.0 °F 96% 30.38 in 10.0 mi Calm Calm - N/A   Overcast
4:25 AM 42.8 °F - 41.0 °F 93% 30.38 in 3.0 mi Calm Calm - 0.02 in Rain Light Rain
4:53 AM 42.1 °F - 41.0 °F 96% 30.38 in 10.0 mi Calm Calm - 0.02 in   Overcast
5:27 AM 42.8 °F - 41.0 °F 93% 30.39 in 8.0 mi Calm Calm - 0.01 in Rain Light Rain
5:53 AM 42.1 °F - 41.0 °F 96% 30.41 in 5.0 mi Calm Calm - 0.02 in Rain Light Rain
5:59 AM 42.8 °F - 42.8 °F 100% 30.41 in 9.0 mi Calm Calm - 0.00 in   Overcast
6:28 AM 42.8 °F 41.1 °F 42.8 °F 100% 30.41 in 9.0 mi East 3.5 mph - 0.00 in Rain Light Rain
6:53 AM 42.1 °F 40.2 °F 41.0 °F 96% 30.42 in 6.0 mi ENE 3.5 mph - 0.01 in Rain Light Rain
7:53 AM 42.1 °F - 41.0 °F 96% 30.44 in 9.0 mi Calm Calm - 0.01 in   Overcast
8:53 AM 43.0 °F - 42.1 °F 97% 30.45 in 7.0 mi Calm Calm - 0.02 in Rain Light Rain
9:53 AM 46.0 °F - 44.1 °F 93% 30.50 in 10.0 mi Calm Calm - 0.00 in   Overcast
10:00 AM - - - N/A% - - North - - N/A   Unknown
10:31 AM 44.6 °F - 44.6 °F 100% 30.48 in 2.0 mi Calm Calm - 0.01 in Rain Light Rain
10:39 AM 46.4 °F - 44.6 °F 93% 30.48 in 10.0 mi Calm Calm - 0.02 in Rain Light Rain
10:53 AM 46.0 °F - 45.0 °F 96% 30.49 in 7.0 mi Calm Calm - 0.02 in   Overcast
11:53 AM 48.9 °F - 46.0 °F 90% 30.47 in 9.0 mi SE 8.1 mph - N/A   Overcast
12:18 PM 48.2 °F - 46.4 °F 93% 30.47 in 10.0 mi Variable 4.6 mph - N/A   Mostly Cloudy
12:33 PM 48.2 °F - 46.4 °F 93% 30.48 in 10.0 mi South 6.9 mph - N/A   Mostly Cloudy
12:53 PM 48.9 °F - 46.0 °F 90% 30.49 in 10.0 mi Variable 3.5 mph - N/A   Overcast
1:08 PM 48.2 °F - 46.4 °F 93% 30.48 in 10.0 mi South 4.6 mph - N/A   Overcast
1:38 PM 48.2 °F - 46.4 °F 93% 30.49 in 3.0 mi South 3.5 mph - N/A   Overcast
1:53 PM 48.0 °F - 46.0 °F 93% 30.49 in 4.0 mi Variable 3.5 mph - N/A   Overcast
2:42 PM 48.2 °F - 44.6 °F 87% 30.48 in 7.0 mi South 5.8 mph - N/A   Overcast
2:53 PM 48.0 °F - 46.0 °F 93% 30.49 in 6.0 mi Variable 3.5 mph - N/A   Overcast
3:00 PM 32.0 °F - 32.0 °F 100% - - North - - N/A   Unknown
3:41 PM 46.4 °F 42.9 °F 44.6 °F 93% 30.49 in 5.0 mi South 6.9 mph - 0.00 in Rain Light Rain
3:53 PM 46.9 °F - 45.0 °F 93% 30.50 in 5.0 mi South 6.9 mph - 0.00 in   Overcast
4:12 PM 46.4 °F 41.9 °F 44.6 °F 93% 30.48 in 1.8 mi SSE 9.2 mph - 0.00 in Rain Light Rain
4:31 PM 46.4 °F 42.4 °F 44.6 °F 93% 30.47 in 3.0 mi SSE 8.1 mph - 0.01 in Rain Light Rain
4:53 PM 46.9 °F - 45.0 °F 93% 30.48 in 7.0 mi South 4.6 mph - 0.01 in   Overcast
5:53 PM 46.9 °F - 45.0 °F 93% 30.48 in 10.0 mi Variable 6.9 mph - N/A   Overcast
6:53 PM 46.9 °F - 45.0 °F 93% 30.47 in 8.0 mi SSE 8.1 mph - 0.00 in   Overcast
7:53 PM 46.9 °F - 46.0 °F 97% 30.46 in 10.0 mi Variable 4.6 mph - N/A   Overcast
8:53 PM 46.9 °F - 46.0 °F 97% 30.45 in 4.0 mi Variable 4.6 mph - N/A   Overcast
9:53 PM 46.9 °F - 46.0 °F 97% 30.44 in 10.0 mi SE 6.9 mph - 0.00 in   Overcast
10:53 PM 46.9 °F - 46.0 °F 97% 30.44 in 1.8 mi SSE 6.9 mph - 0.00 in Rain Light Rain
11:05 PM 46.4 °F 42.4 °F 46.4 °F 100% 30.43 in 2.0 mi SSE 8.1 mph - 0.01 in Rain Light Rain
11:38 PM 46.4 °F 41.1 °F 46.4 °F 100% 30.40 in 4.0 mi SE 11.5 mph 17.3 mph 0.02 in Rain Light Rain
11:53 PM 48.0 °F - 46.9 °F 96% 30.41 in 7.0 mi SSE 8.1 mph 18.4 mph 0.03 in Rain Light Rain